"Pseudo-MPEC" for A11aVIc

Created 2024 Sep 7 12:22:03 UT using Find_Orb

Click here for an explanation of pseudo-MPECs

 
 Astrometry: 
     A11aVIc* C2024 09 07.22482620 32 25.430-27 32 52.12   ~977q 18.51oVNEOCPT08
     A11aVIc  C2024 09 07.22528820 32 25.834-27 32 44.09   ~977q 18.42oVNEOCPT08
     A11aVIc  C2024 09 07.22575120 32 26.201-27 32 34.91   ~977q 18.55oVNEOCPT08
     A11aVIc  C2024 09 07.22621220 32 26.458-27 32 28.64   ~977q 17.45oVNEOCPT08
     A11aVIc  C2024 09 07.22667420 32 26.844-27 32 20.69   ~977q 18.75oVNEOCPT08

Station data:
(T08) ATLAS-MLO, Mauna Loa  (N19.536150 W155.576050)  US/Hawaii.  Observers
   L. Denneau, A. Heinze, H. Weiland, J. Tonry, H. Flewelling, A.
   Fitzsimmons, D. Young, B. Stalder. Measurers L. Denneau, A. Heinze, J.
   Tonry. 0.5-m f/2.0 Schmidt + CCD.

Orbital elements:  A11aVIc
   Perihelion 2024 Jul 7.51580 +/- 37.2 TT = 12:22:45 (JD 2460499.01580)
Epoch 2024 Sep  7.0 TT = JDT 2460560.5   Earth MOID: 0.0065   Ve: 0.0153
M  76.23936678 +/- 45               Me: 0.0151   Ma: 0.0746      AutoNEOCP
n   1.23998311 +/- 0.497            Peri.  214.05925 +/- 70
a   0.85807556 +/- 0.229            Node   347.96302 +/- 56
e   0.6091875 +/- 0.173             Incl.    3.41203 +/- 4.8
P   0.795/290.321d         H 24.45  G  0.15   U 12.3  SR
q 0.33534662 +/- 0.26    Q 1.38080450 +/- 1.04            (J2000 ecliptic)
From 5 observations 2024 Sept. 7 (2.7 min); mean residual 0".52
Residuals in arcseconds: 
240907 T08  .43-  .35-    240907 T08  .62+  1.2+    240907 T08  .00   .27-    
240907 T08  .34+  .16-    240907 T08  .55-  .38-    

Ephemerides (geocentric):
Date (UTC) HH   RA             Dec           delta  r     elong  mag " sig PA
---- --------  ------------   ------------  ------ ------ -----  --- --------
2024 09 07 12  20 35 47.142   -26 16 34.98  .03512 1.0344 139.1 18.8 1295 146
2024 09 07 13  20 36 16.153   -26 06 27.56  .03554 1.0348 139.2 18.8 1556 144
2024 09 07 14  20 36 44.405   -25 56 34.15  .03597 1.0352 139.3 18.9 1874 143
2024 09 07 15  20 37 11.928   -25 46 54.29  .03640 1.0355 139.4 18.9 2250 142
2024 09 07 16  20 37 38.751   -25 37 27.54  .03683 1.0359 139.5 18.9 2695 142
2024 09 07 17  20 38 04.899   -25 28 13.47  .03726 1.0363 139.7 18.9 3219 142
2024 09 07 18  20 38 30.398   -25 19 11.67  .03768 1.0366 139.8 19.0 3841 142
2024 09 07 19  20 38 55.272   -25 10 21.75  .03811 1.0370 139.9 19.0 4583 142
2024 09 07 20  20 39 19.545   -25 01 43.32  .03854 1.0374 140.0 19.0 5481 142
2024 09 07 21  20 39 43.238   -24 53 16.04  .03897 1.0377 140.1 19.0 6583 143
2024 09 07 22  20 40 06.372   -24 44 59.55  .03940 1.0381 140.2 19.0 7957 143
2024 09 07 23  20 40 28.967   -24 36 53.53  .03984 1.0385 140.2 19.1 9709 143
2024 09 08 00  20 40 51.042   -24 28 57.64  .04027 1.0388 140.3 19.1 200' 144
2024 09 08 01  20 41 12.615   -24 21 11.58  .04070 1.0392 140.4 19.1 251' 145
2024 09 08 02  20 41 33.703   -24 13 35.07  .04113 1.0396 140.5 19.1 321' 145
2024 09 08 03  20 41 54.322   -24 06 07.80  .04156 1.0399 140.6 19.2 420' 146
2024 09 08 04  20 42 14.490   -23 58 49.52  .04199 1.0403 140.7 19.2 558' 145
2024 09 08 05  20 42 34.219   -23 51 39.95  .04243 1.0407 140.7 19.2 738' 143
2024 09 08 06  20 42 53.526   -23 44 38.85  .04286 1.0410 140.8 19.2 946' 139
2024 09 08 07  20 43 12.424   -23 37 45.96  .04329 1.0414 140.9 19.2  19d 132
2024 09 08 08  20 43 30.925   -23 31 01.07  .04373 1.0417 140.9 19.3  22d 127
2024 09 08 09  20 43 49.043   -23 24 23.93  .04416 1.0421 141.0 19.3  24d 122
2024 09 08 10  20 44 06.790   -23 17 54.33  .04459 1.0425 141.1 19.3  25d 120
2024 09 08 11  20 44 24.177   -23 11 32.07  .04503 1.0428 141.1 19.3  25d 118
2024 09 08 12  20 44 41.216   -23 05 16.94  .04546 1.0432 141.2 19.3  26d 116
2024 09 08 13  20 44 57.916   -22 59 08.74  .04590 1.0436 141.2 19.4  26d 115
2024 09 08 14  20 45 14.290   -22 53 07.29  .04633 1.0439 141.3 19.4  26d 114
2024 09 08 15  20 45 30.345   -22 47 12.40  .04676 1.0443 141.3 19.4  27d 114
2024 09 08 16  20 45 46.093   -22 41 23.91  .04720 1.0447 141.4 19.4  27d 113
2024 09 08 17  20 46 01.541   -22 35 41.63  .04764 1.0450 141.4 19.4  27d 113
2024 09 08 18  20 46 16.699   -22 30 05.41  .04807 1.0454 141.5 19.5  27d 112
2024 09 08 19  20 46 31.575   -22 24 35.09  .04851 1.0457 141.5 19.5  27d 112
2024 09 08 20  20 46 46.177   -22 19 10.52  .04894 1.0461 141.6 19.5  27d 111
2024 09 08 21  20 47 00.514   -22 13 51.54  .04938 1.0465 141.6 19.5  27d 111
2024 09 08 22  20 47 14.591   -22 08 38.03  .04981 1.0468 141.7 19.5  27d 111
2024 09 08 23  20 47 28.418   -22 03 29.83  .05025 1.0472 141.7 19.5  27d 111
2024 09 09 00  20 47 42.000   -21 58 26.81  .05069 1.0475 141.7 19.6  27d 111
2024 09 09 01  20 47 55.345   -21 53 28.85  .05112 1.0479 141.8 19.6  28d 111
2024 09 09 02  20 48 08.458   -21 48 35.83  .05156 1.0483 141.8 19.6  28d 111
2024 09 09 03  20 48 21.347   -21 43 47.61  .05200 1.0486 141.9 19.6  28d 110
2024 09 09 04  20 48 34.017   -21 39 04.09  .05244 1.0490 141.9 19.6  28d 110
2024 09 09 05  20 48 46.474   -21 34 25.15  .05287 1.0493 141.9 19.7  28d 110
2024 09 09 06  20 48 58.724   -21 29 50.68  .05331 1.0497 142.0 19.7  28d 110
2024 09 09 07  20 49 10.771   -21 25 20.57  .05375 1.0500 142.0 19.7  28d 110
2024 09 09 08  20 49 22.622   -21 20 54.72  .05419 1.0504 142.0 19.7  28d 111
2024 09 09 09  20 49 34.282   -21 16 33.04  .05462 1.0508 142.0 19.7  28d 111
2024 09 09 10  20 49 45.754   -21 12 15.42  .05506 1.0511 142.1 19.7  28d 111
2024 09 09 11  20 49 57.045   -21 08 01.77  .05550 1.0515 142.1 19.8  28d 111